QPF
0.00 0.00 0.00 0.00 0.00 0.00 0.00 0.00 0.00 0.00 0.00 0.00 0.00 0.00 0.00 0.00 0.00 0.00 0.00 0.00 0.00 0.00 0.00 0.00 0.00 0.00 0.00 0.00 0.00 0.00 0.00 0.01 0.04 0.02 0.01 0.00 0.00 0.00 0.00 0.00 0.00 0.00 0.00 0.00 0.00
0.00 0.00 0.00 0.00 0.00 0.00 0.00 0.00 0.00 0.00 0.00 0.00 0.00 0.00 0.00 0.00 0.00 0.00 0.00 0.00 0.00 0.00 0.00 0.00 0.00 0.00 0.00 0.00 0.00 0.00 0.00 0.01 0.01 0.00 0.00 0.00 0.00 0.00 0.00 0.00 0.00 0.00 0.00 0.00 0.00
0.00 0.00 0.00 0.00 0.00 0.00 0.00 0.00 0.00 0.00 0.00 0.00 0.00 0.00 0.00 0.00 0.00 0.00 0.00 0.00 0.00 0.00 0.00 0.00 0.00 0.00 0.00 0.00 0.00 0.00 0.00 0.00 0.00 0.01 0.00 0.00 0.00 0.00 0.00 0.00 0.00 0.00 0.00 0.00 0.00
0.00 0.00 0.00 0.00 0.00 0.00 0.00 0.00 0.00 0.00 0.00 0.00 0.00 0.00 0.00 0.00 0.00 0.00 0.00 0.00 0.00 0.00 0.00 0.00 0.00 0.00 0.00 0.00 0.00 0.00 0.00 0.01 0.07 0.01 0.00 0.00 0.00 0.00 0.00 0.00 0.00 0.00 0.00 0.00 0.00
0.00 0.00 0.00 0.00 0.00 0.00 0.00 0.00 0.00 0.00 0.00 0.00 0.00 0.00 0.00 0.00 0.00 0.00 0.00 0.00 0.00 0.00 0.00 0.00 0.00 0.00 0.00 0.00 0.00 0.00 0.00 0.00 0.02 0.00 0.00 0.01 0.01 0.01 0.00 0.00 0.00 0.00 0.00 0.00 0.00
0.00 0.00 0.00 0.00 0.00 0.00 0.00 0.00 0.00 0.00 0.00 0.00 0.00 0.00 0.00 0.00 0.00 0.00 0.00 0.00 0.00 0.00 0.00 0.00 0.00 0.00 0.00 0.00 0.00 0.00 0.00 0.00 0.00 0.00 0.00 0.01 0.03 0.04 0.01 0.00 0.00 0.00 0.00 0.00 0.00
0.00 0.00 0.00 0.00 0.00 0.00 0.00 0.00 0.00 0.00 0.00 0.00 0.00 0.00 0.00 0.00 0.00 0.00 0.00 0.00 0.00 0.00 0.00 0.00 0.00 0.00 0.00 0.00 0.00 0.00 0.00 0.00 0.00 0.00 0.00 0.00 0.04 0.08 0.01 0.00 0.00 0.00 0.00 0.00 0.00
0.00 0.00 0.00 0.00 0.00 0.00 0.00 0.00 0.00 0.00 0.00 0.00 0.00 0.00 0.00 0.00 0.00 0.00 0.00 0.00 0.00 0.00 0.00 0.00 0.00 0.00 0.00 0.00 0.00 0.00 0.01 0.00 0.00 0.00 0.00 0.00 0.05 0.01 0.04 0.01 0.00 0.00 0.00 0.00 0.00
0.00 0.00 0.00 0.00 0.00 0.00 0.00 0.00 0.00 0.00 0.00 0.00 0.00 0.00 0.00 0.00 0.00 0.00 0.00 0.00 0.00 0.00 0.00 0.00 0.00 0.00 0.00 0.00 0.00 0.01 0.01 0.00 0.00 0.00 0.00 0.00 0.01 0.00 0.01 0.00 0.00 0.00 0.00 0.01 0.00
0.00 0.00 0.00 0.00 0.00 0.00 0.00 0.00 0.00 0.00 0.00 0.00 0.00 0.00 0.00 0.00 0.00 0.00 0.00 0.00 0.00 0.00 0.00 0.00 0.00 0.00 0.00 0.00 0.00 0.00 0.00 0.00 0.00 0.00 0.00 0.00 0.00 0.01 0.00 0.01 0.00 0.00 0.00 0.00 0.00
0.00 0.00 0.00 0.00 0.00 0.00 0.00 0.00 0.00 0.00 0.00 0.00 0.00 0.00 0.00 0.00 0.00 0.00 0.00 0.00 0.00 0.00 0.00 0.00 0.00 0.00 0.00 0.00 0.00 0.00 0.00 0.00 0.00 0.00 0.00 0.00 0.00 0.00 0.00 0.00 0.01 0.00 0.00 0.00 0.00
0.00 0.00 0.00 0.00 0.00 0.00 0.00 0.00 0.00 0.00 0.00 0.00 0.00 0.00 0.00 0.00 0.00 0.00 0.00 0.00 0.00 0.00 0.00 0.00 0.00 0.00 0.00 0.00 0.00 0.00 0.00 0.00 0.00 0.00 0.00 0.00 0.00 0.00 0.00 0.00 0.00 0.00 0.00 0.00 0.00
0.00 0.00 0.00 0.00 0.00 0.00 0.00 0.00 0.00 0.00 0.00 0.00 0.00 0.00 0.00 0.00 0.00 0.00 0.00 0.00 0.00 0.00 0.00 0.00 0.00 0.00 0.00 0.00 0.00 0.00 0.00 0.00 0.00 0.00 0.03 0.00 0.00 0.00 0.00 0.00 0.00 0.00 0.00 0.00 0.00
0.00 0.00 0.00 0.00 0.00 0.00 0.00 0.00 0.00 0.00 0.00 0.00 0.00 0.00 0.00 0.00 0.00 0.00 0.00 0.00 0.00 0.00 0.00 0.00 0.00 0.00 0.00 0.00 0.00 0.00 0.00 0.00 0.00 0.00 0.00 0.00 0.00 0.00 0.00 0.00 0.00 0.00 0.00 0.00 0.00
0.00 0.00 0.00 0.00 0.00 0.00 0.00 0.00 0.00 0.00 0.00 0.00 0.00 0.00 0.00 0.00 0.00 0.00 0.00 0.00 0.00 0.00 0.00 0.00 0.00 0.00 0.00 0.00 0.00 0.00 0.00 0.00 0.00 0.00 0.00 0.00 0.01 0.00 0.00 0.00 0.00 0.00 0.00 0.00 0.00
0.00 0.00 0.00 0.00 0.00 0.00 0.00 0.00 0.00 0.00 0.00 0.00 0.00 0.00 0.00 0.00 0.00 0.00 0.00 0.00 0.00 0.00 0.00 0.00 0.00 0.00 0.00 0.00 0.00 0.00 0.00 0.00 0.00 0.00 0.00 0.00 0.00 0.00 0.00 0.00 0.00 0.00 0.00 0.00 0.00
0.00 0.00 0.00 0.00 0.00 0.00 0.00 0.00 0.00 0.00 0.00 0.00 0.00 0.00 0.00 0.00 0.00 0.00 0.00 0.00 0.00 0.00 0.00 0.00 0.00 0.00 0.00 0.00 0.00 0.00 0.00 0.00 0.00 0.00 0.00 0.00 0.00 0.00 0.00 0.00 0.00 0.00 0.00 0.00 0.00
0.00 0.00 0.00 0.00 0.00 0.00 0.00 0.00 0.00 0.00 0.00 0.00 0.00 0.00 0.00 0.00 0.00 0.00 0.00 0.00 0.00 0.00 0.00 0.00 0.00 0.00 0.00 0.00 0.00 0.00 0.00 0.00 0.00 0.00 0.00 0.00 0.00 0.00 0.00 0.00 0.00 0.00 0.00 0.00 0.00
0.00 0.00 0.00 0.00 0.00 0.00 0.00 0.00 0.00 0.00 0.00 0.00 0.00 0.00 0.00 0.00 0.00 0.00 0.00 0.00 0.00 0.00 0.00 0.00 0.00 0.00 0.00 0.00 0.00 0.00 0.00 0.00 0.00 0.00 0.00 0.00 0.00 0.00 0.00 0.00 0.00 0.00 0.00 0.00 0.00
0.00 0.00 0.00 0.00 0.00 0.00 0.00 0.00 0.00 0.00 0.00 0.00 0.00 0.00 0.00 0.00 0.00 0.00 0.00 0.00 0.00 0.00 0.00 0.00 0.00 0.00 0.00 0.00 0.00 0.00 0.00 0.00 0.00 0.00 0.00 0.00 0.00 0.00 0.00 0.00 0.00 0.00 0.00 0.00 0.00
0.00 0.00 0.00 0.00 0.00 0.00 0.00 0.00 0.00 0.00 0.00 0.00 0.00 0.00 0.00 0.00 0.00 0.00 0.00 0.00 0.00 0.00 0.00 0.00 0.00 0.00 0.00 0.00 0.00 0.00 0.00 0.00 0.00 0.00 0.00 0.00 0.00 0.00 0.00 0.00 0.00 0.00 0.00 0.00 0.00
0.00 0.00 0.00 0.00 0.00 0.00 0.00 0.00 0.00 0.00 0.00 0.00 0.00 0.00 0.00 0.00 0.00 0.00 0.00 0.00 0.00 0.00 0.00 0.00 0.00 0.00 0.00 0.00 0.00 0.00 0.00 0.00 0.00 0.00 0.00 0.00 0.00 0.00 0.00 0.00 0.00 0.00 0.00 0.00 0.00
0.00 0.00 0.00 0.00 0.00 0.00 0.00 0.00 0.00 0.00 0.00 0.00 0.00 0.00 0.00 0.00 0.00 0.00 0.00 0.00 0.00 0.00 0.00 0.00 0.00 0.00 0.00 0.00 0.00 0.00 0.00 0.00 0.00 0.00 0.00 0.00 0.00 0.00 0.00 0.00 0.00 0.00 0.00 0.00 0.00
0.00 0.00 0.00 0.00 0.00 0.00 0.00 0.00 0.00 0.00 0.00 0.00 0.00 0.00 0.00 0.00 0.00 0.00 0.00 0.00 0.00 0.00 0.00 0.00 0.00 0.00 0.00 0.00 0.00 0.00 0.00 0.00 0.00 0.00 0.00 0.00 0.00 0.00 0.00 0.00 0.00 0.00 0.00 0.00 0.00
0.00 0.00 0.00 0.00 0.00 0.00 0.00 0.00 0.00 0.00 0.00 0.00 0.00 0.00 0.00 0.00 0.00 0.00 0.00 0.00 0.00 0.00 0.00 0.00 0.00 0.00 0.00 0.00 0.00 0.00 0.00 0.00 0.00 0.00 0.00 0.00 0.00 0.00 0.00 0.00 0.00 0.00 0.00 0.00 0.00
0.00 0.00 0.00 0.00 0.00 0.00 0.00 0.00 0.00 0.00 0.00 0.00 0.00 0.00 0.00 0.00 0.00 0.00 0.00 0.00 0.00 0.00 0.00 0.00 0.00 0.00 0.00 0.00 0.00 0.00 0.00 0.00 0.00 0.00 0.00 0.00 0.00 0.00 0.00 0.00 0.00 0.00 0.00 0.00 0.00
0.00 0.00 0.00 0.00 0.00 0.00 0.00 0.00 0.00 0.00 0.00 0.00 0.00 0.00 0.00 0.00 0.00 0.00 0.00 0.00 0.00 0.00 0.00 0.00 0.00 0.00 0.00 0.00 0.00 0.00 0.00 0.00 0.00 0.00 0.00 0.00 0.00 0.00 0.00 0.00 0.00 0.00 0.00 0.00 0.00
MSLP
1016.94 1016.77 1016.54 1016.27 1015.99 1015.76 1015.54 1015.29 1015.10 1014.88 1014.68 1014.48 1014.09 1013.76 1013.44 1013.12 1012.41 1012.13 1010.83 1009.41 1009.22 1009.18 1009.47 1009.60 1009.52 1009.49 1009.60 1010.00 1010.60 1010.93 1011.16 1011.56 1011.73 1011.87 1011.96 1011.61 1011.27 1011.36 1011.64 1011.97 1012.48 1012.88 1013.15 1013.62 1014.78
1016.93 1016.66 1016.42 1016.17 1015.81 1015.57 1015.34 1015.06 1014.83 1014.67 1014.51 1014.35 1014.00 1013.65 1013.37 1013.15 1012.40 1010.83 1009.08 1009.15 1009.19 1009.19 1009.29 1009.17 1009.21 1009.40 1009.60 1010.14 1010.63 1010.85 1011.42 1012.01 1012.35 1012.37 1012.32 1011.97 1011.65 1011.41 1011.70 1012.01 1012.70 1013.32 1013.98 1014.34 1014.92
1016.97 1016.65 1016.37 1016.06 1015.72 1015.44 1015.17 1014.92 1014.68 1014.51 1014.38 1014.16 1013.81 1013.52 1013.27 1013.04 1011.75 1009.00 1008.47 1008.97 1009.22 1009.32 1009.16 1009.05 1009.10 1009.27 1009.54 1010.19 1010.74 1011.15 1011.71 1012.53 1013.01 1013.03 1012.84 1012.39 1011.87 1011.56 1011.70 1011.89 1012.38 1013.06 1013.94 1014.45 1014.97
1016.94 1016.61 1016.27 1015.90 1015.56 1015.32 1015.01 1014.68 1014.44 1014.27 1014.13 1013.87 1013.58 1013.34 1013.05 1012.69 1010.61 1008.56 1008.56 1008.79 1009.17 1009.30 1009.16 1009.03 1009.08 1009.07 1009.46 1010.08 1010.91 1011.26 1012.08 1012.47 1013.07 1013.51 1013.19 1012.71 1012.30 1011.71 1011.87 1012.09 1012.29 1013.26 1014.10 1014.29 1014.82
1016.88 1016.48 1016.07 1015.69 1015.36 1015.03 1014.75 1014.44 1014.24 1014.10 1013.92 1013.67 1013.36 1013.11 1012.79 1011.55 1009.30 1008.56 1008.55 1008.90 1009.20 1009.29 1009.06 1008.88 1008.76 1008.82 1009.35 1010.18 1010.93 1011.43 1012.18 1012.60 1013.08 1013.40 1013.14 1012.90 1012.37 1012.23 1012.25 1012.49 1012.70 1013.52 1014.29 1014.48 1014.72
1016.84 1016.39 1015.94 1015.53 1015.17 1014.80 1014.50 1014.25 1013.95 1013.75 1013.57 1013.43 1013.18 1012.98 1012.22 1010.17 1008.65 1008.69 1008.79 1009.10 1009.07 1009.10 1008.99 1008.85 1008.49 1008.79 1009.52 1010.39 1010.95 1011.76 1012.02 1012.64 1013.10 1013.39 1013.30 1012.95 1012.51 1012.41 1012.39 1012.70 1013.01 1013.51 1014.15 1014.60 1014.79
1016.68 1016.20 1015.75 1015.30 1014.91 1014.56 1014.22 1013.96 1013.65 1013.45 1013.27 1013.13 1012.98 1012.74 1011.42 1009.46 1008.64 1008.86 1008.95 1008.94 1009.09 1009.07 1008.71 1008.72 1008.57 1008.68 1009.52 1010.43 1011.39 1011.62 1011.94 1012.44 1012.99 1013.25 1013.38 1013.23 1012.71 1012.26 1012.58 1012.78 1013.07 1013.39 1014.01 1014.49 1014.79
1016.54 1016.02 1015.53 1015.13 1014.71 1014.29 1013.91 1013.57 1013.25 1013.03 1012.94 1012.89 1012.79 1012.38 1010.13 1008.80 1008.86 1008.96 1008.97 1008.99 1009.14 1009.15 1008.88 1008.76 1008.69 1009.05 1009.62 1010.48 1011.05 1011.23 1011.64 1011.90 1012.68 1012.89 1013.19 1013.34 1012.47 1012.86 1012.91 1012.83 1013.07 1013.39 1013.79 1014.23 1014.47
1016.41 1015.88 1015.36 1014.94 1014.51 1014.09 1013.67 1013.14 1012.53 1012.56 1012.66 1012.68 1012.51 1011.60 1009.28 1008.84 1008.71 1008.43 1008.59 1008.57 1008.90 1009.03 1008.91 1008.87 1008.86 1009.43 1010.12 1010.21 1010.62 1011.19 1011.16 1011.54 1012.10 1012.44 1012.65 1013.08 1012.37 1012.65 1013.02 1012.86 1012.97 1013.17 1013.54 1014.04 1014.18
1016.18 1015.70 1015.15 1014.70 1014.29 1013.97 1013.45 1012.98 1012.57 1012.48 1012.56 1012.45 1011.92 1011.19 1008.79 1008.35 1008.06 1008.34 1008.55 1008.47 1008.53 1008.74 1008.73 1008.77 1008.94 1009.28 1009.85 1009.83 1009.70 1010.43 1010.82 1011.25 1011.33 1011.81 1012.21 1012.38 1012.30 1012.54 1012.69 1012.87 1013.26 1013.07 1013.32 1013.42 1013.72
1015.94 1015.43 1014.91 1014.45 1014.03 1013.79 1013.34 1012.83 1012.70 1012.21 1011.58 1010.61 1010.23 1009.41 1008.39 1007.96 1007.92 1008.01 1008.22 1008.29 1008.39 1008.45 1008.36 1008.91 1008.59 1008.54 1008.78 1009.58 1009.67 1009.95 1010.26 1010.56 1010.89 1011.25 1011.65 1011.73 1011.86 1011.90 1012.33 1012.59 1012.80 1013.07 1013.16 1013.17 1012.98
1015.69 1015.10 1014.61 1014.18 1013.76 1013.43 1013.27 1011.82 1011.25 1011.11 1010.38 1009.43 1009.38 1008.91 1008.27 1007.90 1007.63 1007.80 1008.03 1008.07 1008.20 1008.33 1008.71 1008.79 1008.37 1008.45 1009.00 1009.37 1009.51 1009.52 1009.64 1010.11 1010.74 1011.08 1011.43 1011.35 1011.19 1011.05 1011.54 1011.86 1012.20 1012.34 1012.61 1012.53 1012.66
1015.48 1014.83 1014.28 1013.80 1013.40 1013.33 1012.32 1011.09 1010.69 1010.64 1010.04 1008.72 1008.35 1007.91 1007.64 1007.60 1007.36 1007.47 1007.71 1007.96 1008.18 1008.44 1008.52 1008.36 1008.43 1008.42 1008.68 1008.78 1008.87 1008.73 1009.01 1009.65 1010.04 1010.90 1011.25 1011.23 1010.48 1010.32 1010.82 1011.40 1011.80 1012.16 1012.09 1012.12 1012.04
1015.18 1014.60 1014.09 1013.57 1013.51 1012.54 1011.40 1010.75 1010.73 1010.65 1009.40 1008.22 1007.51 1006.91 1007.31 1007.19 1007.34 1007.37 1007.50 1007.69 1008.15 1008.26 1008.60 1008.47 1008.37 1008.32 1008.21 1008.09 1008.29 1008.04 1008.60 1009.08 1009.68 1010.22 1010.52 1010.98 1010.04 1009.77 1010.16 1010.48 1010.97 1011.15 1011.51 1011.54 1011.54
1014.86 1014.36 1014.02 1013.82 1013.20 1012.03 1010.93 1010.67 1010.56 1010.21 1008.55 1007.52 1006.76 1006.57 1006.84 1006.94 1007.03 1007.49 1007.59 1007.59 1007.71 1008.09 1008.59 1007.91 1007.95 1008.00 1007.73 1007.23 1007.85 1008.29 1008.49 1008.86 1009.36 1009.73 1010.18 1010.56 1010.37 1009.47 1009.99 1009.76 1009.69 1010.20 1010.51 1010.88 1010.90
1014.42 1013.99 1013.72 1013.63 1013.21 1011.17 1010.84 1010.47 1010.27 1009.39 1007.71 1006.68 1006.32 1006.39 1006.52 1006.62 1006.77 1007.25 1007.37 1007.53 1007.85 1007.91 1008.09 1007.73 1007.84 1007.57 1007.02 1007.39 1007.66 1008.31 1008.67 1009.09 1009.47 1009.65 1009.56 1009.75 1009.75 1008.46 1008.88 1008.87 1009.14 1009.36 1009.70 1010.12 1010.46
1013.84 1013.28 1013.26 1012.61 1011.61 1011.09 1010.76 1010.15 1009.71 1008.35 1007.47 1006.53 1005.96 1006.13 1006.14 1006.38 1006.57 1006.80 1007.04 1007.29 1007.40 1007.63 1007.36 1007.37 1007.15 1006.99 1007.03 1007.29 1008.04 1008.03 1007.87 1008.09 1008.60 1008.88 1008.84 1009.76 1009.58 1008.14 1008.40 1008.77 1009.04 1009.09 1009.31 1009.55 1010.03
1013.41 1012.68 1012.58 1011.90 1011.41 1011.23 1010.31 1009.95 1009.10 1007.60 1006.81 1006.33 1005.98 1005.96 1005.96 1006.01 1006.31 1006.58 1006.85 1006.92 1007.42 1007.45 1007.29 1006.81 1006.79 1006.77 1006.86 1006.78 1006.90 1007.60 1007.51 1007.55 1007.88 1008.44 1008.59 1009.66 1008.71 1007.81 1008.33 1008.76 1008.88 1009.16 1009.27 1009.51 1009.64
1012.94 1012.24 1011.91 1011.31 1011.28 1011.29 1010.11 1009.44 1008.19 1007.41 1006.66 1006.21 1005.99 1005.68 1005.61 1005.78 1005.90 1006.40 1006.49 1006.38 1006.23 1006.69 1006.81 1006.80 1006.77 1006.94 1007.09 1007.06 1007.43 1007.86 1007.91 1008.01 1008.16 1009.22 1008.79 1008.54 1008.42 1007.89 1008.10 1008.41 1008.85 1008.92 1009.20 1009.20 1009.16
1013.57 1012.38 1011.50 1011.18 1011.20 1010.70 1009.96 1009.08 1008.35 1007.59 1006.90 1006.43 1005.84 1005.55 1005.23 1005.45 1005.77 1006.00 1006.09 1005.75 1005.89 1006.22 1006.42 1006.79 1006.85 1007.20 1007.33 1007.59 1007.80 1007.57 1008.15 1008.22 1008.29 1008.34 1008.20 1008.22 1008.23 1007.57 1007.74 1007.94 1008.60 1008.98 1008.97 1009.12 1009.12
1013.33 1012.14 1011.58 1011.39 1011.14 1010.44 1009.65 1009.09 1008.30 1007.45 1007.17 1006.45 1005.89 1005.59 1005.28 1005.17 1005.36 1005.41 1005.44 1005.37 1005.43 1006.23 1006.61 1006.84 1006.91 1007.22 1007.35 1007.79 1008.02 1008.07 1008.02 1008.47 1008.39 1008.63 1007.93 1007.83 1007.64 1007.52 1007.62 1008.09 1008.56 1008.84 1009.15 1009.15 1009.09
1014.04 1012.48 1011.41 1011.15 1011.08 1011.05 1009.98 1009.28 1008.42 1007.42 1006.96 1006.49 1006.06 1005.56 1005.36 1005.22 1005.15 1005.15 1004.92 1004.90 1005.10 1005.66 1006.29 1007.10 1007.03 1007.11 1007.79 1008.36 1008.77 1008.64 1008.49 1008.36 1007.94 1008.74 1008.81 1008.41 1007.76 1007.94 1008.22 1008.54 1008.87 1009.01 1009.24 1009.33 1009.11
1014.97 1013.57 1011.67 1011.07 1011.07 1010.90 1010.30 1009.37 1008.55 1007.64 1007.14 1006.62 1006.01 1005.70 1005.47 1005.19 1005.19 1004.89 1004.85 1004.78 1005.17 1005.35 1005.72 1006.55 1007.36 1007.43 1007.86 1008.35 1008.75 1008.60 1008.97 1009.08 1008.85 1008.77 1008.50 1008.14 1007.81 1008.31 1008.49 1008.64 1008.99 1009.19 1009.24 1009.36 1009.20
1015.32 1013.93 1012.42 1011.92 1012.07 1011.40 1010.66 1009.65 1008.87 1008.15 1007.47 1007.01 1006.36 1006.02 1005.76 1005.27 1005.31 1004.90 1004.78 1005.04 1005.32 1005.58 1006.07 1006.40 1007.22 1007.25 1007.44 1007.80 1008.25 1008.53 1008.84 1009.07 1008.74 1008.49 1008.19 1007.94 1007.69 1007.99 1008.37 1008.72 1009.05 1009.33 1009.43 1009.42 1009.29
1015.71 1014.82 1014.53 1013.12 1012.42 1011.99 1011.54 1010.53 1009.54 1008.77 1008.05 1007.52 1006.80 1006.74 1006.34 1005.58 1005.30 1004.99 1004.82 1005.13 1005.66 1006.17 1006.57 1006.58 1006.95 1007.76 1008.02 1008.43 1008.59 1008.55 1008.63 1008.81 1008.74 1008.61 1008.43 1007.72 1008.01 1007.71 1008.36 1008.81 1009.15 1009.53 1009.58 1009.47 1009.42
1016.15 1015.41 1014.89 1013.96 1013.27 1012.39 1011.66 1010.75 1010.22 1009.68 1009.15 1007.96 1007.59 1007.35 1006.98 1006.07 1005.05 1004.74 1004.80 1005.01 1005.07 1006.22 1006.46 1007.09 1007.51 1008.06 1008.30 1008.72 1008.81 1008.55 1008.46 1008.51 1008.47 1008.48 1008.42 1007.98 1007.81 1008.05 1008.51 1009.05 1009.39 1009.66 1009.77 1009.66 1009.69
1016.70 1016.39 1015.53 1014.30 1013.38 1012.67 1011.88 1011.43 1010.87 1010.75 1009.45 1008.99 1008.67 1008.14 1007.28 1006.75 1006.24 1005.27 1005.15 1005.07 1004.81 1005.35 1006.46 1007.07 1007.53 1008.14 1008.21 1008.96 1008.90 1008.37 1007.49 1007.62 1007.59 1007.72 1007.70 1007.58 1007.51 1008.40 1008.67 1009.05 1009.35 1009.74 1010.03 1009.93 1009.88
Thickness
5744 5744 5745 5747 5749 5750 5751 5752 5753 5754 5756 5758 5761 5763 5765 5768 5775 5777 5782 5798 5801 5802 5800 5797 5795 5792 5791 5780 5777 5774 5751 5737 5740 5740 5743 5760 5756 5766 5767 5753 5751 5751 5748 5749 5745
5746 5747 5747 5748 5750 5751 5752 5753 5754 5755 5756 5757 5760 5763 5765 5767 5772 5778 5799 5800 5801 5802 5797 5792 5784 5787 5778 5774 5771 5763 5747 5739 5744 5745 5744 5755 5757 5759 5754 5750 5741 5741 5744 5745 5743
5747 5748 5749 5750 5751 5752 5753 5755 5756 5756 5757 5757 5760 5762 5764 5766 5773 5789 5801 5799 5798 5799 5799 5798 5793 5786 5774 5773 5767 5760 5744 5744 5741 5745 5748 5751 5755 5764 5752 5744 5746 5742 5740 5742 5739
5748 5750 5751 5752 5753 5754 5756 5757 5758 5758 5758 5759 5761 5762 5764 5766 5763 5795 5798 5797 5796 5797 5796 5791 5786 5777 5770 5763 5766 5753 5752 5750 5742 5738 5743 5746 5755 5757 5755 5750 5757 5749 5747 5745 5738
5750 5752 5754 5755 5755 5756 5758 5759 5760 5759 5760 5760 5761 5762 5764 5769 5778 5796 5795 5793 5792 5792 5788 5785 5781 5778 5766 5765 5762 5753 5749 5750 5746 5736 5745 5753 5751 5751 5751 5754 5757 5749 5745 5744 5742
5750 5753 5755 5756 5757 5758 5759 5760 5761 5761 5760 5760 5760 5760 5765 5767 5792 5791 5791 5788 5787 5788 5785 5786 5782 5783 5768 5760 5756 5754 5753 5747 5745 5742 5744 5741 5750 5752 5754 5756 5752 5748 5744 5743 5743
5751 5754 5756 5758 5759 5760 5761 5762 5763 5763 5761 5760 5759 5760 5765 5773 5789 5786 5786 5784 5785 5786 5783 5788 5788 5780 5773 5756 5759 5757 5745 5748 5743 5741 5739 5741 5741 5746 5755 5756 5750 5748 5745 5744 5744
5751 5755 5757 5759 5760 5762 5763 5764 5765 5764 5762 5759 5758 5758 5766 5785 5784 5782 5782 5779 5782 5785 5786 5790 5790 5777 5769 5766 5756 5749 5749 5736 5741 5745 5743 5740 5735 5743 5749 5753 5749 5749 5746 5744 5745
5752 5755 5758 5760 5761 5763 5764 5766 5768 5765 5760 5757 5758 5759 5765 5782 5775 5782 5782 5774 5775 5779 5783 5786 5783 5766 5762 5749 5742 5741 5734 5735 5736 5749 5745 5738 5740 5748 5750 5752 5749 5751 5749 5746 5748
5752 5755 5758 5761 5762 5763 5765 5766 5765 5762 5758 5756 5757 5755 5772 5767 5776 5777 5779 5777 5770 5769 5769 5770 5765 5754 5750 5748 5733 5734 5735 5737 5738 5746 5745 5739 5740 5745 5751 5744 5741 5750 5749 5749 5749
5751 5754 5758 5761 5762 5763 5764 5766 5767 5763 5759 5765 5764 5763 5767 5776 5779 5771 5774 5769 5768 5762 5752 5754 5752 5746 5753 5748 5753 5750 5745 5741 5747 5754 5746 5744 5744 5747 5750 5749 5747 5743 5746 5748 5755
5750 5754 5757 5760 5762 5763 5763 5774 5771 5766 5756 5768 5763 5762 5769 5773 5759 5763 5773 5755 5752 5741 5747 5747 5740 5756 5754 5752 5749 5750 5746 5743 5746 5751 5748 5747 5747 5758 5755 5752 5750 5748 5748 5748 5756
5747 5752 5757 5760 5763 5762 5769 5774 5774 5769 5754 5764 5767 5765 5767 5769 5758 5757 5764 5753 5743 5736 5739 5738 5744 5753 5750 5750 5746 5753 5748 5743 5747 5745 5748 5743 5746 5755 5758 5756 5755 5753 5757 5758 5758
5746 5750 5754 5759 5762 5765 5771 5774 5771 5767 5749 5757 5762 5769 5767 5767 5752 5767 5768 5757 5742 5736 5734 5737 5748 5746 5747 5748 5754 5746 5758 5755 5745 5742 5732 5744 5731 5753 5758 5755 5758 5759 5757 5759 5761
5744 5748 5750 5752 5760 5766 5773 5772 5771 5766 5720 5760 5763 5782 5770 5760 5760 5755 5767 5757 5739 5736 5736 5739 5742 5740 5743 5757 5757 5747 5757 5753 5748 5743 5738 5732 5728 5754 5750 5752 5762 5765 5766 5764 5769
5744 5747 5748 5749 5751 5767 5768 5770 5767 5741 5719 5753 5766 5757 5755 5758 5756 5756 5756 5762 5754 5741 5740 5744 5754 5754 5761 5758 5759 5756 5748 5743 5739 5735 5724 5732 5735 5752 5753 5762 5764 5771 5773 5771 5770
5744 5748 5748 5751 5764 5763 5765 5765 5735 5725 5754 5749 5755 5757 5753 5748 5749 5751 5745 5739 5734 5721 5727 5740 5746 5757 5762 5749 5750 5750 5748 5726 5719 5720 5724 5725 5724 5752 5763 5764 5765 5768 5770 5776 5775
5742 5748 5749 5752 5755 5756 5762 5746 5713 5741 5746 5760 5756 5753 5747 5751 5748 5747 5741 5736 5738 5736 5727 5729 5726 5750 5760 5759 5754 5748 5752 5730 5700 5709 5728 5720 5724 5753 5762 5765 5768 5767 5770 5770 5773
5737 5744 5746 5751 5750 5749 5750 5722 5733 5740 5754 5751 5752 5745 5746 5750 5752 5743 5742 5743 5754 5750 5731 5727 5731 5753 5755 5759 5757 5741 5737 5747 5724 5709 5716 5730 5738 5759 5762 5761 5761 5764 5764 5767 5771
5721 5731 5740 5742 5742 5745 5735 5718 5731 5745 5751 5750 5739 5750 5743 5747 5743 5742 5739 5756 5753 5756 5759 5744 5731 5745 5750 5754 5752 5753 5747 5731 5726 5700 5699 5719 5719 5739 5751 5757 5757 5755 5760 5763 5766
5717 5725 5728 5729 5732 5731 5720 5721 5728 5747 5746 5743 5743 5742 5748 5747 5748 5743 5747 5759 5762 5750 5754 5748 5742 5739 5747 5736 5732 5740 5737 5726 5731 5718 5715 5709 5722 5753 5755 5755 5752 5755 5755 5759 5763
5702 5710 5720 5722 5713 5700 5712 5716 5725 5739 5746 5744 5747 5747 5745 5748 5744 5744 5748 5755 5767 5761 5746 5742 5740 5727 5728 5736 5736 5733 5730 5734 5726 5708 5709 5712 5725 5747 5747 5748 5747 5749 5750 5754 5760
5684 5688 5709 5713 5697 5698 5703 5711 5720 5729 5732 5737 5740 5746 5748 5745 5737 5746 5747 5763 5761 5759 5750 5745 5724 5714 5717 5728 5729 5726 5720 5717 5719 5716 5705 5707 5723 5738 5742 5742 5744 5743 5748 5749 5754
5676 5684 5693 5691 5682 5687 5690 5700 5704 5722 5725 5732 5736 5740 5738 5739 5741 5741 5745 5752 5756 5754 5743 5748 5724 5724 5713 5720 5726 5716 5717 5713 5718 5707 5708 5713 5723 5732 5733 5733 5736 5737 5741 5744 5747
5664 5665 5661 5670 5675 5673 5675 5684 5692 5696 5714 5721 5724 5723 5725 5729 5732 5735 5743 5744 5746 5738 5738 5745 5723 5716 5719 5715 5714 5715 5713 5709 5705 5708 5698 5716 5705 5729 5727 5728 5730 5730 5733 5737 5739
5652 5654 5653 5656 5654 5662 5663 5674 5679 5685 5693 5705 5709 5713 5718 5724 5740 5735 5741 5739 5743 5737 5735 5729 5712 5713 5709 5708 5706 5704 5709 5704 5704 5702 5697 5704 5705 5722 5723 5721 5719 5721 5724 5728 5729
5632 5633 5638 5641 5649 5652 5657 5660 5667 5670 5689 5693 5695 5699 5709 5721 5731 5744 5746 5745 5752 5743 5728 5725 5714 5708 5704 5695 5695 5692 5711 5709 5710 5710 5706 5696 5713 5708 5709 5710 5714 5714 5714 5718 5723